Gauley Below the Meadow [ USA-WVR ]

Edit Gauge

Current Conditions

Reading of "n/a" = frozen gauge or gauge error.
Reading Trend Type Updated
298 cfs -3 cfs/hr Flow 01h33m

Station Description

AW Gauge ID: 43451
Source: virtual
Station: 6192
Enabled yes
Description:Summersville Gauley + the Meadow.
Calculation:$flow=$gauge[8515]->getValue(GMETRIC_FLOW,120*60)+$gauge[51285]->getValue(GMETRIC_FLOW,60*120);
Data is courtesy of AW's Stream Team program. This data is calculated based on other gauges and information provided by the Stream Team. This data, and any river data, should be used with caution.

Information

Flow

Gauge History

Times listed in GMT 24h, ET and PT hours provided for convenience Graphs in GMT. Readings of "n/a" constitute a frozen gauge or gauge error.
Reading Updated (GMT) Eastern Pacific Comment
297.93 05/27/2015 12:11:44 May 27 08:11 am May 27 5:11 am
301.36 05/27/2015 11:12:00 May 27 07:12 am May 27 4:12 am
297.93 05/27/2015 10:12:16 May 27 06:12 am May 27 3:12 am
297.93 05/27/2015 09:12:32 May 27 05:12 am May 27 2:12 am
297.93 05/27/2015 08:12:48 May 27 04:12 am May 27 1:12 am
297.93 05/27/2015 07:13:04 May 27 03:13 am May 27 12:13 am
302.36 05/27/2015 06:11:12 May 27 02:11 am May 26 11:11 pm
298.93 05/27/2015 05:11:28 May 27 01:11 am May 26 10:11 pm
300.93 05/27/2015 04:11:44 May 27 12:11 am May 26 9:11 pm
300.93 05/27/2015 03:12:00 May 26 11:12 pm May 26 8:12 pm
305.36 05/27/2015 02:12:16 May 26 10:12 pm May 26 7:12 pm
307.36 05/27/2015 01:12:32 May 26 09:12 pm May 26 6:12 pm
303.93 05/27/2015 00:12:48 May 26 08:12 pm May 26 5:12 pm
303.93 05/26/2015 23:13:04 May 26 07:13 pm May 26 4:13 pm
304.93 05/26/2015 22:11:12 May 26 06:11 pm May 26 3:11 pm
307.36 05/26/2015 21:11:28 May 26 05:11 pm May 26 2:11 pm
305.36 05/26/2015 20:11:44 May 26 04:11 pm May 26 1:11 pm
298.93 05/26/2015 19:12:00 May 26 03:12 pm May 26 12:12 pm
295.51 05/26/2015 18:12:16 May 26 02:12 pm May 26 11:12 am
302.36 05/26/2015 17:12:32 May 26 01:12 pm May 26 10:12 am
298.93 05/26/2015 16:12:48 May 26 12:12 pm May 26 9:12 am
302.36 05/26/2015 15:13:04 May 26 11:13 am May 26 8:13 am
341.00 05/26/2015 14:11:12 May 26 10:11 am May 26 7:11 am
343.00 05/26/2015 13:11:28 May 26 09:11 am May 26 6:11 am
339.42 05/26/2015 12:11:44 May 26 08:11 am May 26 5:11 am
339.42 05/26/2015 11:12:00 May 26 07:12 am May 26 4:12 am
339.42 05/26/2015 10:12:16 May 26 06:12 am May 26 3:12 am
339.42 05/26/2015 09:12:32 May 26 05:12 am May 26 2:12 am
340.42 05/26/2015 08:12:48 May 26 04:12 am May 26 1:12 am
344.00 05/26/2015 07:13:04 May 26 03:13 am May 26 12:13 am
342.42 05/26/2015 06:11:12 May 26 02:11 am May 25 11:11 pm
346.00 05/26/2015 05:11:28 May 26 01:11 am May 25 10:11 pm
342.42 05/26/2015 04:11:44 May 26 12:11 am May 25 9:11 pm
343.42 05/26/2015 03:12:00 May 25 11:12 pm May 25 8:12 pm
347.00 05/26/2015 02:12:16 May 25 10:12 pm May 25 7:12 pm
343.42 05/26/2015 01:12:32 May 25 09:12 pm May 25 6:12 pm
343.42 05/26/2015 00:12:48 May 25 08:12 pm May 25 5:12 pm
343.42 05/25/2015 23:13:04 May 25 07:13 pm May 25 4:13 pm
345.42 05/25/2015 22:11:12 May 25 06:11 pm May 25 3:11 pm
349.00 05/25/2015 21:11:28 May 25 05:11 pm May 25 2:11 pm
346.42 05/25/2015 20:11:44 May 25 04:11 pm May 25 1:11 pm
346.42 05/25/2015 19:12:00 May 25 03:12 pm May 25 12:12 pm
350.00 05/25/2015 18:12:16 May 25 02:12 pm May 25 11:12 am
348.42 05/25/2015 17:12:32 May 25 01:12 pm May 25 10:12 am
350.00 05/25/2015 16:12:48 May 25 12:12 pm May 25 9:12 am
350.00 05/25/2015 15:13:04 May 25 11:13 am May 25 8:13 am
352.00 05/25/2015 14:11:12 May 25 10:11 am May 25 7:11 am
355.60 05/25/2015 13:11:28 May 25 09:11 am May 25 6:11 am
353.00 05/25/2015 12:11:44 May 25 08:11 am May 25 5:11 am
353.00 05/25/2015 11:12:00 May 25 07:12 am May 25 4:12 am
355.00 05/25/2015 10:12:16 May 25 06:12 am May 25 3:12 am
351.42 05/25/2015 09:12:32 May 25 05:12 am May 25 2:12 am
351.42 05/25/2015 08:12:48 May 25 04:12 am May 25 1:12 am
355.00 05/25/2015 07:13:04 May 25 03:13 am May 25 12:13 am
358.00 05/25/2015 06:11:12 May 25 02:11 am May 24 11:11 pm
352.42 05/25/2015 05:11:28 May 25 01:11 am May 24 10:11 pm
354.42 05/25/2015 04:11:44 May 25 12:11 am May 24 9:11 pm
359.00 05/25/2015 03:12:00 May 24 11:12 pm May 24 8:12 pm
355.42 05/25/2015 02:12:16 May 24 10:12 pm May 24 7:12 pm
357.42 05/25/2015 01:12:32 May 24 09:12 pm May 24 6:12 pm
361.00 05/25/2015 00:12:48 May 24 08:12 pm May 24 5:12 pm
357.42 05/24/2015 23:13:04 May 24 07:13 pm May 24 4:13 pm
362.00 05/24/2015 22:11:12 May 24 06:11 pm May 24 3:11 pm
362.00 05/24/2015 21:11:28 May 24 05:11 pm May 24 2:11 pm
360.42 05/24/2015 20:11:44 May 24 04:11 pm May 24 1:11 pm
360.42 05/24/2015 19:12:00 May 24 03:12 pm May 24 12:12 pm
363.42 05/24/2015 13:11:28 May 24 09:11 am May 24 6:11 am
372.60 05/24/2015 12:11:44 May 24 08:11 am May 24 5:11 am
367.42 05/24/2015 11:12:00 May 24 07:12 am May 24 4:12 am
371.00 05/24/2015 10:12:16 May 24 06:12 am May 24 3:12 am
371.00 05/24/2015 09:12:32 May 24 05:12 am May 24 2:12 am
368.42 05/24/2015 08:12:48 May 24 04:12 am May 24 1:12 am
372.00 05/24/2015 07:13:04 May 24 03:13 am May 24 12:13 am
374.00 05/24/2015 06:11:12 May 24 02:11 am May 23 11:11 pm
370.42 05/24/2015 05:11:28 May 24 01:11 am May 23 10:11 pm
376.00 05/24/2015 04:11:44 May 24 12:11 am May 23 9:11 pm
372.42 05/24/2015 03:12:00 May 23 11:12 pm May 23 8:12 pm
374.42 05/24/2015 02:12:16 May 23 10:12 pm May 23 7:12 pm
374.42 05/24/2015 00:12:48 May 23 08:12 pm May 23 5:12 pm
374.42 05/23/2015 23:13:04 May 23 07:13 pm May 23 4:13 pm
376.42 05/23/2015 22:11:12 May 23 06:11 pm May 23 3:11 pm
380.00 05/23/2015 21:11:28 May 23 05:11 pm May 23 2:11 pm
376.42 05/23/2015 20:11:44 May 23 04:11 pm May 23 1:11 pm
376.42 05/23/2015 19:12:00 May 23 03:12 pm May 23 12:12 pm
380.00 05/23/2015 18:12:16 May 23 02:12 pm May 23 11:12 am
380.00 05/23/2015 17:12:32 May 23 01:12 pm May 23 10:12 am
380.00 05/23/2015 16:12:48 May 23 12:12 pm May 23 9:12 am
380.00 05/23/2015 15:13:04 May 23 11:13 am May 23 8:13 am
380.00 05/23/2015 14:11:12 May 23 10:11 am May 23 7:11 am
380.00 05/23/2015 13:11:28 May 23 09:11 am May 23 6:11 am
376.42 05/23/2015 10:12:16 May 23 06:12 am May 23 3:12 am
376.42 05/23/2015 08:12:48 May 23 04:12 am May 23 1:12 am
376.42 05/23/2015 07:13:04 May 23 03:13 am May 23 12:13 am
380.00 05/23/2015 06:11:12 May 23 02:11 am May 22 11:11 pm
380.00 05/23/2015 05:11:28 May 23 01:11 am May 22 10:11 pm
380.00 05/23/2015 04:11:44 May 23 12:11 am May 22 9:11 pm
381.00 05/23/2015 02:12:16 May 22 10:12 pm May 22 7:12 pm
381.00 05/22/2015 23:13:04 May 22 07:13 pm May 22 4:13 pm
413.88 05/22/2015 22:11:12 May 22 06:11 pm May 22 3:11 pm
449.88 05/22/2015 21:11:28 May 22 05:11 pm May 22 2:11 pm
453.73 05/22/2015 20:11:44 May 22 04:11 pm May 22 1:11 pm
455.73 05/22/2015 19:12:00 May 22 03:12 pm May 22 12:12 pm
455.73 05/22/2015 18:12:16 May 22 02:12 pm May 22 11:12 am
455.73 05/22/2015 17:12:32 May 22 01:12 pm May 22 10:12 am
455.73 05/22/2015 16:12:48 May 22 12:12 pm May 22 9:12 am
455.73 05/22/2015 15:13:04 May 22 11:13 am May 22 8:13 am
455.73 05/22/2015 14:11:12 May 22 10:11 am May 22 7:11 am
455.73 05/22/2015 13:11:28 May 22 09:11 am May 22 6:11 am
455.73 05/22/2015 12:11:44 May 22 08:11 am May 22 5:11 am
455.73 05/22/2015 11:12:00 May 22 07:12 am May 22 4:12 am
455.73 05/22/2015 10:12:16 May 22 06:12 am May 22 3:12 am
455.73 05/22/2015 09:12:32 May 22 05:12 am May 22 2:12 am
455.73 05/22/2015 08:12:48 May 22 04:12 am May 22 1:12 am
455.73 05/22/2015 07:13:04 May 22 03:13 am May 22 12:13 am
457.73 05/22/2015 06:11:12 May 22 02:11 am May 21 11:11 pm
457.73 05/22/2015 05:11:28 May 22 01:11 am May 21 10:11 pm
457.73 05/22/2015 04:11:44 May 22 12:11 am May 21 9:11 pm
457.73 05/22/2015 03:12:00 May 21 11:12 pm May 21 8:12 pm
459.73 05/22/2015 02:12:16 May 21 10:12 pm May 21 7:12 pm
459.73 05/22/2015 00:12:48 May 21 08:12 pm May 21 5:12 pm
461.73 05/21/2015 23:13:04 May 21 07:13 pm May 21 4:13 pm
457.88 05/21/2015 22:11:12 May 21 06:11 pm May 21 3:11 pm
457.88 05/21/2015 21:11:28 May 21 05:11 pm May 21 2:11 pm
461.73 05/21/2015 20:11:44 May 21 04:11 pm May 21 1:11 pm
463.73 05/21/2015 19:12:00 May 21 03:12 pm May 21 12:12 pm
463.73 05/21/2015 18:12:16 May 21 02:12 pm May 21 11:12 am
463.73 05/21/2015 17:12:32 May 21 01:12 pm May 21 10:12 am
465.73 05/21/2015 16:12:48 May 21 12:12 pm May 21 9:12 am
465.73 05/21/2015 14:11:12 May 21 10:11 am May 21 7:11 am
465.73 05/21/2015 13:11:28 May 21 09:11 am May 21 6:11 am
461.88 05/21/2015 12:11:44 May 21 08:11 am May 21 5:11 am
446.63 05/21/2015 11:12:00 May 21 07:12 am May 21 4:12 am
446.63 05/21/2015 10:12:16 May 21 06:12 am May 21 3:12 am
446.63 05/21/2015 09:12:32 May 21 05:12 am May 21 2:12 am
446.63 05/21/2015 08:12:48 May 21 04:12 am May 21 1:12 am
442.85 05/21/2015 07:13:04 May 21 03:13 am May 21 12:13 am
448.63 05/21/2015 06:11:12 May 21 02:11 am May 20 11:11 pm
446.85 05/21/2015 05:11:28 May 21 01:11 am May 20 10:11 pm
450.63 05/21/2015 04:11:44 May 21 12:11 am May 20 9:11 pm
448.85 05/21/2015 03:12:00 May 20 11:12 pm May 20 8:12 pm
454.63 05/21/2015 01:12:32 May 20 09:12 pm May 20 6:12 pm
454.63 05/21/2015 00:12:48 May 20 08:12 pm May 20 5:12 pm
450.85 05/20/2015 23:13:04 May 20 07:13 pm May 20 4:13 pm
453.85 05/20/2015 22:11:12 May 20 06:11 pm May 20 3:11 pm
457.63 05/20/2015 21:11:28 May 20 05:11 pm May 20 2:11 pm
459.63 05/20/2015 20:11:44 May 20 04:11 pm May 20 1:11 pm
456.85 05/20/2015 19:12:00 May 20 03:12 pm May 20 12:12 pm
456.85 05/20/2015 18:12:16 May 20 02:12 pm May 20 11:12 am
460.63 05/20/2015 17:12:32 May 20 01:12 pm May 20 10:12 am
462.63 05/20/2015 16:12:48 May 20 12:12 pm May 20 9:12 am
462.63 05/20/2015 15:13:04 May 20 11:13 am May 20 8:13 am
460.85 05/20/2015 14:11:12 May 20 10:11 am May 20 7:11 am
464.63 05/20/2015 13:11:28 May 20 09:11 am May 20 6:11 am
466.63 05/20/2015 12:11:44 May 20 08:11 am May 20 5:11 am
466.63 05/20/2015 11:12:00 May 20 07:12 am May 20 4:12 am
463.85 05/20/2015 10:12:16 May 20 06:12 am May 20 3:12 am
463.85 05/20/2015 09:12:32 May 20 05:12 am May 20 2:12 am
469.63 05/20/2015 08:12:48 May 20 04:12 am May 20 1:12 am
465.85 05/20/2015 06:11:12 May 20 02:11 am May 19 11:11 pm
467.85 05/20/2015 05:11:28 May 20 01:11 am May 19 10:11 pm
473.63 05/20/2015 04:11:44 May 20 12:11 am May 19 9:11 pm
469.85 05/20/2015 03:12:00 May 19 11:12 pm May 19 8:12 pm
473.63 05/20/2015 02:12:16 May 19 10:12 pm May 19 7:12 pm
475.63 05/20/2015 01:12:32 May 19 09:12 pm May 19 6:12 pm
475.63 05/20/2015 00:12:48 May 19 08:12 pm May 19 5:12 pm
475.63 05/19/2015 23:13:04 May 19 07:13 pm May 19 4:13 pm
472.85 05/19/2015 22:11:12 May 19 06:11 pm May 19 3:11 pm
472.85 05/19/2015 21:11:28 May 19 05:11 pm May 19 2:11 pm
476.63 05/19/2015 20:11:44 May 19 04:11 pm May 19 1:11 pm
472.85 05/19/2015 19:12:00 May 19 03:12 pm May 19 12:12 pm
471.85 05/19/2015 18:12:16 May 19 02:12 pm May 19 11:12 am
472.85 05/19/2015 17:12:32 May 19 01:12 pm May 19 10:12 am
471.85 05/19/2015 16:12:48 May 19 12:12 pm May 19 9:12 am
475.63 05/19/2015 15:13:04 May 19 11:13 am May 19 8:13 am
473.63 05/19/2015 14:11:12 May 19 10:11 am May 19 7:11 am
469.63 05/19/2015 13:11:28 May 19 09:11 am May 19 6:11 am
514.06 05/19/2015 12:11:44 May 19 08:11 am May 19 5:11 am
507.11 05/19/2015 11:12:00 May 19 07:12 am May 19 4:12 am
509.06 05/19/2015 10:12:16 May 19 06:12 am May 19 3:12 am
505.11 05/19/2015 09:12:32 May 19 05:12 am May 19 2:12 am
507.06 05/19/2015 08:12:48 May 19 04:12 am May 19 1:12 am
507.06 05/19/2015 07:13:04 May 19 03:13 am May 19 12:13 am
507.06 05/19/2015 06:11:12 May 19 02:11 am May 18 11:11 pm
506.06 05/19/2015 05:11:28 May 19 01:11 am May 18 10:11 pm
502.11 05/19/2015 03:12:00 May 18 11:12 pm May 18 8:12 pm
502.11 05/19/2015 01:12:32 May 18 09:12 pm May 18 6:12 pm
502.11 05/18/2015 23:13:04 May 18 07:13 pm May 18 4:13 pm
504.06 05/18/2015 22:11:12 May 18 06:11 pm May 18 3:11 pm
504.06 05/18/2015 21:11:28 May 18 05:11 pm May 18 2:11 pm
504.06 05/18/2015 20:11:44 May 18 04:11 pm May 18 1:11 pm
504.06 05/18/2015 19:12:00 May 18 03:12 pm May 18 12:12 pm
498.18 05/18/2015 18:12:16 May 18 02:12 pm May 18 11:12 am
502.11 05/18/2015 17:12:32 May 18 01:12 pm May 18 10:12 am
506.06 05/18/2015 16:12:48 May 18 12:12 pm May 18 9:12 am
502.11 05/18/2015 15:13:04 May 18 11:13 am May 18 8:13 am
507.06 05/18/2015 14:11:12 May 18 10:11 am May 18 7:11 am
503.11 05/18/2015 13:11:28 May 18 09:11 am May 18 6:11 am
507.06 05/18/2015 12:11:44 May 18 08:11 am May 18 5:11 am
507.06 05/18/2015 11:12:00 May 18 07:12 am May 18 4:12 am
506.06 05/18/2015 10:12:16 May 18 06:12 am May 18 3:12 am
506.06 05/18/2015 09:12:32 May 18 05:12 am May 18 2:12 am
504.06 05/18/2015 08:12:48 May 18 04:12 am May 18 1:12 am
504.06 05/18/2015 07:13:04 May 18 03:13 am May 18 12:13 am
504.06 05/18/2015 06:11:12 May 18 02:11 am May 17 11:11 pm
504.06 05/18/2015 05:11:28 May 18 01:11 am May 17 10:11 pm
504.06 05/18/2015 04:11:44 May 18 12:11 am May 17 9:11 pm
506.06 05/18/2015 03:12:00 May 17 11:12 pm May 17 8:12 pm
506.06 05/18/2015 02:12:16 May 17 10:12 pm May 17 7:12 pm
507.06 05/18/2015 01:12:32 May 17 09:12 pm May 17 6:12 pm
507.06 05/18/2015 00:12:48 May 17 08:12 pm May 17 5:12 pm
507.06 05/17/2015 23:13:04 May 17 07:13 pm May 17 4:13 pm
509.06 05/17/2015 22:11:12 May 17 06:11 pm May 17 3:11 pm
509.06 05/17/2015 21:11:28 May 17 05:11 pm May 17 2:11 pm
511.06 05/17/2015 20:11:44 May 17 04:11 pm May 17 1:11 pm
511.06 05/17/2015 19:12:00 May 17 03:12 pm May 17 12:12 pm
513.06 05/17/2015 18:12:16 May 17 02:12 pm May 17 11:12 am
513.06 05/17/2015 17:12:32 May 17 01:12 pm May 17 10:12 am
517.02 05/17/2015 16:12:48 May 17 12:12 pm May 17 9:12 am
517.02 05/17/2015 15:13:04 May 17 11:13 am May 17 8:13 am
514.06 05/17/2015 14:11:12 May 17 10:11 am May 17 7:11 am
514.06 05/17/2015 13:11:28 May 17 09:11 am May 17 6:11 am
513.06 05/17/2015 12:11:44 May 17 08:11 am May 17 5:11 am
515.02 05/17/2015 11:12:00 May 17 07:12 am May 17 4:12 am
509.06 05/17/2015 10:12:16 May 17 06:12 am May 17 3:12 am
509.06 05/17/2015 09:12:32 May 17 05:12 am May 17 2:12 am
505.11 05/17/2015 08:12:48 May 17 04:12 am May 17 1:12 am
509.06 05/17/2015 07:13:04 May 17 03:13 am May 17 12:13 am
511.06 05/17/2015 06:11:12 May 17 02:11 am May 16 11:11 pm
513.06 05/17/2015 04:11:44 May 17 12:11 am May 16 9:11 pm
513.06 05/17/2015 03:12:00 May 16 11:12 pm May 16 8:12 pm
514.06 05/17/2015 02:12:16 May 16 10:12 pm May 16 7:12 pm
514.06 05/17/2015 00:12:48 May 16 08:12 pm May 16 5:12 pm
510.11 05/16/2015 23:13:04 May 16 07:13 pm May 16 4:13 pm
512.11 05/16/2015 22:11:12 May 16 06:11 pm May 16 3:11 pm
516.06 05/16/2015 21:11:28 May 16 05:11 pm May 16 2:11 pm
516.06 05/16/2015 20:11:44 May 16 04:11 pm May 16 1:11 pm
518.06 05/16/2015 19:12:00 May 16 03:12 pm May 16 12:12 pm
518.06 05/16/2015 18:12:16 May 16 02:12 pm May 16 11:12 am
520.06 05/16/2015 17:12:32 May 16 01:12 pm May 16 10:12 am
522.02 05/16/2015 16:12:48 May 16 12:12 pm May 16 9:12 am
518.06 05/16/2015 15:13:04 May 16 11:13 am May 16 8:13 am
518.06 05/16/2015 14:11:12 May 16 10:11 am May 16 7:11 am
518.06 05/16/2015 13:11:28 May 16 09:11 am May 16 6:11 am
518.06 05/16/2015 09:12:32 May 16 05:12 am May 16 2:12 am
520.06 05/16/2015 08:12:48 May 16 04:12 am May 16 1:12 am
520.06 05/16/2015 07:13:04 May 16 03:13 am May 16 12:13 am
520.06 05/16/2015 06:11:12 May 16 02:11 am May 15 11:11 pm
516.11 05/16/2015 05:11:28 May 16 01:11 am May 15 10:11 pm
518.11 05/16/2015 04:11:44 May 16 12:11 am May 15 9:11 pm
518.11 05/16/2015 03:12:00 May 15 11:12 pm May 15 8:12 pm
522.06 05/16/2015 02:12:16 May 15 10:12 pm May 15 7:12 pm
522.06 05/16/2015 01:12:32 May 15 09:12 pm May 15 6:12 pm
518.11 05/16/2015 00:12:48 May 15 08:12 pm May 15 5:12 pm
518.11 05/15/2015 23:13:04 May 15 07:13 pm May 15 4:13 pm
523.06 05/15/2015 22:11:12 May 15 06:11 pm May 15 3:11 pm
521.11 05/15/2015 21:11:28 May 15 05:11 pm May 15 2:11 pm
525.06 05/15/2015 20:11:44 May 15 04:11 pm May 15 1:11 pm
521.11 05/15/2015 19:12:00 May 15 03:12 pm May 15 12:12 pm
527.06 05/15/2015 18:12:16 May 15 02:12 pm May 15 11:12 am
523.11 05/15/2015 17:12:32 May 15 01:12 pm May 15 10:12 am
525.11 05/15/2015 16:12:48 May 15 12:12 pm May 15 9:12 am
475.09 05/15/2015 15:13:04 May 15 11:13 am May 15 8:13 am
478.85 05/15/2015 14:11:12 May 15 10:11 am May 15 7:11 am
475.09 05/15/2015 13:11:28 May 15 09:11 am May 15 6:11 am
475.09 05/15/2015 12:11:44 May 15 08:11 am May 15 5:11 am
475.09 05/15/2015 11:12:00 May 15 07:12 am May 15 4:12 am
475.09 05/15/2015 10:12:16 May 15 06:12 am May 15 3:12 am
475.09 05/15/2015 09:12:32 May 15 05:12 am May 15 2:12 am
477.09 05/15/2015 08:12:48 May 15 04:12 am May 15 1:12 am
477.09 05/15/2015 07:13:04 May 15 03:13 am May 15 12:13 am
477.09 05/15/2015 06:11:12 May 15 02:11 am May 14 11:11 pm
479.09 05/15/2015 05:11:28 May 15 01:11 am May 14 10:11 pm
479.09 05/15/2015 04:11:44 May 15 12:11 am May 14 9:11 pm
481.09 05/15/2015 03:12:00 May 14 11:12 pm May 14 8:12 pm
483.09 05/15/2015 02:12:16 May 14 10:12 pm May 14 7:12 pm
483.09 05/15/2015 01:12:32 May 14 09:12 pm May 14 6:12 pm
486.85 05/15/2015 00:12:48 May 14 08:12 pm May 14 5:12 pm
486.85 05/14/2015 23:13:04 May 14 07:13 pm May 14 4:13 pm
480.34 05/14/2015 22:11:12 May 14 06:11 pm May 14 3:11 pm
486.09 05/14/2015 21:11:28 May 14 05:11 pm May 14 2:11 pm
482.34 05/14/2015 20:11:44 May 14 04:11 pm May 14 1:11 pm
486.09 05/14/2015 19:12:00 May 14 03:12 pm May 14 12:12 pm
510.88 05/14/2015 18:12:16 May 14 02:12 pm May 14 11:12 am
653.88 05/14/2015 17:12:32 May 14 01:12 pm May 14 10:12 am
662.56 05/14/2015 16:12:48 May 14 12:12 pm May 14 9:12 am
662.56 05/14/2015 15:13:04 May 14 11:13 am May 14 8:13 am
662.56 05/14/2015 14:11:12 May 14 10:11 am May 14 7:11 am
695.41 05/14/2015 13:11:28 May 14 09:11 am May 14 6:11 am
657.88 05/14/2015 12:11:44 May 14 08:11 am May 14 5:11 am
477.17 05/14/2015 11:12:00 May 14 07:12 am May 14 4:12 am
455.21 05/14/2015 10:12:16 May 14 06:12 am May 14 3:12 am
457.21 05/14/2015 09:12:32 May 14 05:12 am May 14 2:12 am
457.21 05/14/2015 08:12:48 May 14 04:12 am May 14 1:12 am
646.95 05/14/2015 07:13:04 May 14 03:13 am May 14 12:13 am
753.27 05/14/2015 06:11:12 May 14 02:11 am May 13 11:11 pm
753.27 05/14/2015 04:11:44 May 14 12:11 am May 13 9:11 pm
750.67 05/14/2015 03:12:00 May 13 11:12 pm May 13 8:12 pm
750.67 05/14/2015 02:12:16 May 13 10:12 pm May 13 7:12 pm
757.27 05/14/2015 01:12:32 May 13 09:12 pm May 13 6:12 pm
757.27 05/13/2015 23:13:04 May 13 07:13 pm May 13 4:13 pm

Report - Reports of Related Gauges

Reports give the public a chance to report on river conditions throughout the country as well as log the history of a river.

Reports

When River/Gauge Subject Level Reporter
6y49h40m Gauley Below the Meadow [WV] Account of 05/26/09 600 cfs Ryan Groth

Linked Reaches

Click a heading to sort. Hover over a heading for help.
River Name/Section Class Level running? Updated
Gauley [WV] 8 (Middle). Mason Branch to Bucklick Branch III+(IV) 298 cfs
-3 cfs/hr
L9-
Below Recom.
01h33m
Gauley [WV] 9 (Lower). Bucklick Branch to Swiss III-IV(V) 333 cfs
-10 cfs/hr
L0-
Below Recom.
00h46m

Associated Gauges

Disclaimer Data Sources

Gauley at Summersville (cfs) (AW#8515)

232 cfs 01h18m

MEADOW RIVER AT NALLEN, WV (AW#51285)

66 cfs 00h31m

MEADOW RIVER AT NALLEN, WV (AW#51285)

3.52 ft 00h31m